This is the latest recevied weather packets stored in our database for station/object IONIA-WX. If no packets are shown the sender has not sent any weather packets the latest 10 day(s).
| Time | Temp. | Humidity | Pressure | Rain* | Wind** | Luminosity | Snow |
|---|---|---|---|---|---|---|---|
| 1788395419 | 27.22° C | 61% | 983.1 hPa | 0 mm | - | - | - |
| 1788394549 | 28.33° C | 61% | 983.2 hPa | 0 mm | - | - | - |
| 1788393618 | 28.33° C | 61% | 983.2 hPa | 0 mm | - | - | - |
| 1788392719 | 28.89° C | 61% | 983.3 hPa | 0 mm | - | - | - |
| 1788391819 | 28.89° C | 52% | 983.1 hPa | 0 mm | - | - | - |
| 1788390916 | 29.44° C | 52% | 983.1 hPa | 0 mm | - | - | - |
| 1788390033 | 30° C | 52% | 983.1 hPa | 0 mm | - | - | - |
| 1788389119 | 30.56° C | 53% | 983.2 hPa | 0 mm | - | - | - |
| 1788388218 | 30.56° C | 53% | 983.7 hPa | 0 mm | - | - | - |
| 1788387317 | 30.56° C | 53% | 983.7 hPa | 0 mm | - | - | - |
| 1788386427 | 31.11° C | 53% | 983.7 hPa | 0 mm | - | - | - |
| 1788385548 | -17.78° C | 100% | - | 0 mm | - | - | - |
| 1788384619 | 31.67° C | 50% | 983.4 hPa | 0 mm | - | - | - |
| 1788383718 | 31.67° C | 50% | 983.5 hPa | 0 mm | - | - | - |
| 1788382847 | -17.78° C | 100% | - | 0 mm | - | - | - |
| 1788382096 | -17.78° C | 100% | - | 0 mm | - | - | - |
| 1788381019 | 32.22° C | 49% | 983.8 hPa | 0 mm | - | - | - |
| 1788380117 | 32.22° C | 49% | 983.8 hPa | 0 mm | - | - | - |
| 1788379220 | 32.22° C | 47% | 983.4 hPa | 0 mm | - | - | - |
| 1788378317 | 32.22° C | 49% | 984.3 hPa | 0 mm | - | - | - |
| 1788377434 | 32.22° C | 49% | 984.3 hPa | 0 mm | - | - | - |
| 1788376516 | 32.22° C | 49% | 984.3 hPa | 0 mm | - | - | - |
| 1788375619 | 32.22° C | 46% | 983.8 hPa | 0 mm | - | - | - |
| 1788374716 | 32.22° C | 53% | 984.8 hPa | 0 mm | - | - | - |
| 1788373817 | 32.22° C | 53% | 984.8 hPa | 0 mm | - | - | - |
* Rain latest hour (hover to see other rain measurements)
** Current wind speed in m/s (hover to see current wind gust speed)